sat.trackr.live / text

‹ back to catalog

EZIE-A

NORAD 63247 · 2025-052AP

PAYLOAD ACTIVE UNKNOWN

§ Identity

Operator
Country
US
Launch date
2025-03-15
Launch site
AFWTR
Launch vehicle
Mass (kg)
RCS (m²)

External: N2YO · Heavens-Above · Gunter

§ Orbital elements

Epoch: 2026-05-24T23:44:54.794976Z

Period
96.19 min
Inclination
97.6933°
Eccentricity
0.0001076
Mean motion
14.97107858 rev/d
Perigee alt
575.1 km
Apogee alt
576.6 km
Semi-major
6,954.0 km
B*
3.9728e-4
RAAN
37.5222°
Arg perigee
305.3557°
Mean anomaly
54.7564°
Rev number
6,519

§ Raw data

EZIE-A1 63247U 25052AP  26144.98952309  .00004527  00000+0  39728-3 0  99972 63247  97.6933  37.5222 0001076 305.3557  54.7564 14.97107858 65196

JSON: /api/v1/satellites/63247 · /tle

For live sub-satellite position, see the globe view (requires WebGL).

§ Visibility from observer

Set your observer location to see the next 7 days of passes ≥ 10°. The values pass through the URL so the page stays shareable.

No JS? Fill the form by hand. The geolocation button needs JavaScript.

§ Radio — SatNOGS DB

ModeDescriptionDownlinkUplink
FM Mode S - Transmitter 1 2.211 GHz
FM Mode S - Transmitter 2 2.218 GHz
FM Mode S - Transmitter 3 2.268 GHz

3 transmitters · refreshed weekly from db.satnogs.org